[[{"header":{"parameterUnit":"m.s-1","parameterCategory":1,"la1":30.2991,"la2":30.254,"lo1":-89.0895,"lo2":-89.0444,"dy":0.0017,"dx":0.0017,"nx":28,"ny":28,"refTime":"2024-05-04T09:00:00:Z","depth":0,"parameterNumber":2,"parameterNumberName":"U-component_of_WINDS"},"data":[0,0,0,0,0,0,0,0,0,0,0,0,0,0,0,0,0,0,0,0,0,0,0,0,0,0,0,0,0,0,0,0,0,0,0,0,0,0,0,0,0,0,0,0,0,0,0,0,0,0,0,0,0,0,0,0,0,0,-2.7519,-2.7519,0,-2.7589,-2.759,-2.7591,-2.7585,-2.7584,-2.7583,-2.7582,-2.7653,-2.7656,-2.7659,0,0,0,0,0,0,0,0,0,0,0,0,0,-2.7379,-2.7381,-2.7518,-2.7519,-2.752,-2.7589,-2.759,-2.7591,-2.7586,-2.7584,-2.7583,-2.7582,-2.7652,-2.7656,-2.7659,0,0,0,0,0,0,0,0,0,0,0,0,0,-2.7443,-2.7382,-2.7518,-2.7526,-2.7527,-2.7589,-2.759,-2.7591,-2.7586,-2.7584,-2.7583,-2.7581,-2.7651,-2.7656,-2.766,-2.7718,0,0,-2.7673,-2.7675,0,0,0,0,0,0,0,0,-2.744,-2.7449,-2.7524,-2.7525,-2.7527,-2.7577,-2.7567,-2.7634,-2.7586,-2.7564,-2.7582,-2.758,-2.7629,-2.7635,-2.7652,-2.7722,-2.7725,-2.7673,-2.7676,-2.7678,-2.7679,0,0,0,0,0,0,0,-2.7435,-2.7446,-2.7546,-2.7525,-2.7527,-2.7526,-2.7533,-2.758,-2.7604,-2.7565,-2.7565,-2.7574,-2.763,-2.7648,-2.7654,-2.7726,-2.7673,-2.7677,-2.768,-2.7681,-2.7848,-2.785,0,0,0,0,0,0,-2.7429,-2.7442,-2.7544,-2.7549,-2.7479,-2.753,-2.7538,-2.7562,-2.7604,-2.7609,-2.7575,-2.7573,-2.7641,-2.7648,-2.7656,-2.7728,-2.7678,-2.7682,-2.7684,-2.7847,-2.7849,-2.7851,0,0,0,0,0,0,-2.7426,-2.7438,-2.7541,-2.7495,-2.7508,-2.7534,-2.7561,-2.7565,-2.7583,-2.7611,-2.7615,-2.7589,-2.764,-2.765,-2.7703,-2.773,-2.7684,-2.7688,-2.7844,-2.7847,-2.785,-2.7871,0,0,0,0,0,0,-2.7422,-2.7437,-2.746,-2.7496,-2.7511,-2.7587,-2.7563,-2.7567,-2.759,-2.7589,-2.7625,-2.763,-2.764,-2.7697,-2.7708,-2.7735,-2.7691,-2.7842,-2.7846,-2.7849,-2.7868,-2.7874,-2.7879,0,0,0,0,0,-2.7417,-2.7462,-2.7461,-2.7473,-2.7539,-2.7589,-2.7597,-2.7608,-2.7593,-2.7615,-2.7634,-2.7629,-2.7726,-2.7702,-2.7714,-2.7744,-2.784,-2.7845,-2.7849,-2.7865,-2.7873,-2.7879,0,0,0,0,0,0,-2.7428,-2.7467,-2.7466,-2.7524,-2.7553,-2.7588,-2.7616,-2.7616,-2.765,-2.7646,-2.7658,-2.7667,-2.772,-2.7738,-2.7711,-2.7803,-2.7781,-2.7788,-2.779,-2.7797,-2.7803,-2.7797,-2.7695,0,0,0,0,0,-2.7437,-2.7474,-2.7506,-2.7554,-2.7569,-2.7591,-2.7613,-2.7619,-2.7649,-2.7662,-2.7684,-2.7714,-2.7751,-2.7775,-2.7811,-2.7871,-2.7879,-2.7897,-2.7903,-2.7908,-2.7913,-2.7947,-2.7955,-2.7864,-2.7864,-2.7864,0,0,-2.7456,-2.7482,-2.7504,-2.7557,-2.7581,-2.7619,-2.7601,-2.7642,-2.767,-2.7668,-2.7719,-2.7737,-2.7771,-2.7829,-2.7855,-2.7844,-2.794,-2.7913,-2.7916,-2.7919,-2.7952,-2.796,-2.7968,-2.7867,-2.7867,-2.7866,0,0,-2.751,-2.7533,-2.7576,-2.7601,-2.7637,-2.7651,-2.7661,-2.7697,-2.7709,-2.7761,-2.776,-2.7795,-2.7859,-2.7883,-2.7904,-2.797,-2.7967,-2.7982,-2.8011,-2.8043,-2.8051,-2.8057,-2.808,-2.8089,-2.7987,-2.7987,-2.7987,0,-2.7528,-2.7586,-2.7598,-2.764,-2.7663,-2.7664,-2.7708,-2.7731,-2.7777,-2.7793,-2.7781,-2.7862,-2.7885,-2.7949,-2.7965,-2.7982,-2.7994,-2.7976,-2.8049,-2.8055,-2.8061,-2.8084,-2.8092,-2.7989,-2.7988,-2.7988,-2.7988,0,-2.7607,-2.7648,-2.7678,-2.7723,-2.775,-2.7793,-2.7812,-2.7838,-2.7843,-2.7858,-2.7912,-2.794,-2.7982,-2.7998,-2.8002,-2.8063,-2.8055,-2.8046,-2.8024,-2.8071,-2.8092,-2.8101,-2.7991,-2.799,-2.799,-2.7989,0,0,-2.7667,-2.772,-2.7731,-2.7752,-2.7793,-2.7824,-2.7868,-2.791,-2.7932,-2.7964,-2.8001,-2.8056,-2.8048,-2.8072,-2.808,-2.8109,-2.816,-2.8096,-2.8097,-2.8107,-2.8228,-2.8234,-2.8243,-2.8158,-2.816,-2.8162,-2.8225,0,-2.7725,-2.7801,-2.7815,-2.7881,-2.7919,-2.7921,-2.7959,-2.7989,-2.8005,-2.804,-2.8058,-2.8097,-2.8084,-2.8098,-2.8127,-2.8147,-2.8184,-2.8143,-2.8192,-2.8194,-2.8182,-2.8254,-2.826,-2.8318,-2.8233,-2.8235,-2.8236,0,-2.7802,-2.7837,-2.7908,-2.7945,-2.7961,-2.7995,-2.8035,-2.8068,-2.8102,-2.8112,-2.814,-2.8144,-2.819,-2.8167,-2.823,-2.8202,-2.8223,-2.8237,-2.8239,-2.8243,-2.8216,-2.8259,-2.8337,-2.8346,-2.8249,-2.8248,-2.8247,0,-2.7838,-2.7903,-2.7954,-2.7972,-2.8017,-2.804,-2.806,-2.8093,-2.8117,-2.8153,-2.8169,-2.8209,-2.8231,-2.8262,-2.8278,-2.826,-2.834,-2.8318,-2.8349,-2.8349,-2.8364,-2.8363,-2.8446,-2.838,-2.838,-2.838,-2.838,0,-2.79,-2.7943,-2.7971,-2.8002,-2.8051,-2.8067,-2.8114,-2.8134,-2.8163,-2.8198,-2.8203,-2.8236,-2.8256,-2.8292,-2.8305,-2.8355,-2.8365,-2.8374,-2.8377,-2.8373,-2.8372,-2.8386,-2.8382,-2.8382,-2.8382,-2.8381,-2.8381,0,-2.7948,-2.7968,-2.8024,-2.8062,-2.8073,-2.8107,-2.814,-2.8171,-2.8188,-2.8233,-2.8245,-2.8272,-2.8315,-2.8334,-2.8387,-2.8396,-2.8453,-2.8453,-2.8441,-2.8442,-2.8472,-2.8468,-2.8566,-2.8579,-2.8505,-2.8506,-2.8507,0,-2.7986,-2.8019,-2.8061,-2.8086,-2.8106,-2.8145,-2.8171,-2.8188,-2.8215,-2.8257,-2.8283,-2.8326,-2.8361,-2.843,-2.8455,-2.8495,-2.8496,-2.8528,-2.8502,-2.8498,-2.8496,-2.8493,-2.8497,-2.8532,-2.8532,-2.8533,-2.8533,0,-2.805,-2.8059,-2.8096,-2.8137,-2.8168,-2.8201,-2.8233,-2.8253,-2.8275,-2.8305,-2.8349,-2.8377,-2.8432,-2.8475,-2.8518,-2.8538,-2.854,-2.8542,-2.8551,-2.8547,-2.8538,-2.8543,-2.8453,-2.8539,-2.8538,-2.8538,-2.8538,-2.8537,-2.8094,-2.8124,-2.8159,-2.82,-2.8227,-2.8257,-2.8288,-2.831,-2.8347,-2.8393,-2.8402,-2.8449,-2.8484,-2.8541,-2.8564,-2.8601,-2.8594,-2.8607,-2.861,-2.8613,-2.8615,-2.8534,-2.8609,-2.8609,-2.8609,-2.8609,-2.8609,0,-2.8158,-2.8181,-2.8219,-2.8265,-2.8298,-2.8297,-2.8334,-2.8361,-2.8403,-2.8435,-2.847,-2.8522,-2.8564,-2.8593,-2.8636,-2.866,-2.8662,-2.8671,-2.8669,-2.8674,-2.8619,-2.8607,-2.8669,-2.8669,-2.8669,-2.8669,-2.8669,-2.8669,-2.8196,-2.8246,-2.826,-2.8324,-2.8347,-2.8394,-2.8414,-2.8443,-2.8469,-2.8526,-2.8562,-2.8581,-2.8612,-2.8658,-2.8697,-2.8704,-2.8719,-2.8728,-2.8735,-2.8684,-2.8677,-2.8671,-2.8659,-2.8732,-2.8732,-2.8787,-2.8787,-2.8787]},{"header":{"parameterUnit":"m.s-1","parameterCategory":1,"la1":30.2991,"la2":30.254,"lo1":-89.0895,"lo2":-89.0444,"dy":0.0017,"dx":0.0017,"nx":28,"ny":28,"refTime":"2024-05-04T09:00:00:Z","depth":0,"parameterNumber":3,"parameterNumberName":"V-component_of_WINDS"},"data":[0,0,0,0,0,0,0,0,0,0,0,0,0,0,0,0,0,0,0,0,0,0,0,0,0,0,0,0,0,0,0,0,0,0,0,0,0,0,0,0,0,0,0,0,0,0,0,0,0,0,0,0,0,0,0,0,0,0,3.1732,3.1732,0,3.1743,3.1744,3.1744,3.1766,3.1767,3.1767,3.1768,3.1771,3.1771,3.177,0,0,0,0,0,0,0,0,0,0,0,0,0,3.1726,3.1726,3.1732,3.1732,3.1732,3.1743,3.1744,3.1744,3.1766,3.1767,3.1767,3.1768,3.1771,3.1771,3.177,0,0,0,0,0,0,0,0,0,0,0,0,0,3.1732,3.1726,3.1732,3.1745,3.1746,3.1743,3.1744,3.1744,3.1766,3.1767,3.1768,3.1768,3.1771,3.1771,3.177,3.1753,0,0,3.1769,3.1769,0,0,0,0,0,0,0,0,3.1731,3.1732,3.1743,3.1744,3.1746,3.1754,3.1743,3.1746,3.1766,3.1758,3.1768,3.1769,3.1764,3.1765,3.1765,3.1753,3.1753,3.1769,3.1768,3.1768,3.1768,0,0,0,0,0,0,0,3.1731,3.1731,3.1736,3.1743,3.1745,3.1749,3.1751,3.1743,3.1757,3.1759,3.1761,3.1762,3.1765,3.1765,3.1765,3.1753,3.1769,3.1768,3.1768,3.1768,3.1732,3.1732,0,0,0,0,0,0,3.1729,3.1731,3.1736,3.1737,3.174,3.1749,3.175,3.1751,3.1757,3.1759,3.1762,3.1763,3.1766,3.1766,3.1765,3.1748,3.1768,3.1768,3.1767,3.1733,3.1732,3.1731,0,0,0,0,0,0,3.1729,3.173,3.1735,3.1734,3.1736,3.1748,3.1748,3.1751,3.1751,3.1759,3.1761,3.176,3.1766,3.1766,3.1757,3.1748,3.1767,3.1767,3.1734,3.1733,3.1732,3.1712,0,0,0,0,0,0,3.1729,3.1729,3.1723,3.1734,3.1736,3.1728,3.1747,3.175,3.1751,3.1753,3.1758,3.1759,3.1767,3.1758,3.1757,3.1748,3.1767,3.1734,3.1733,3.1732,3.1713,3.171,3.1707,0,0,0,0,0,3.1728,3.1714,3.1723,3.1723,3.1729,3.1728,3.1728,3.174,3.175,3.1744,3.175,3.1759,3.175,3.1757,3.1756,3.1747,3.1735,3.1733,3.1732,3.1714,3.1711,3.1708,0,0,0,0,0,0,3.1698,3.1716,3.1725,3.1715,3.172,3.1732,3.1724,3.1735,3.1735,3.1737,3.1749,3.175,3.174,3.1742,3.175,3.1732,3.1744,3.1742,3.1731,3.1728,3.1725,3.1724,3.1766,0,0,0,0,0,3.1691,3.1691,3.1705,3.1695,3.1697,3.1711,3.171,3.172,3.1724,3.1726,3.1731,3.1734,3.1732,3.173,3.1728,3.1714,3.1716,3.1708,3.1705,3.1702,3.17,3.1696,3.1693,3.1727,3.1727,3.1727,0,0,3.1674,3.1684,3.1682,3.1689,3.1694,3.1693,3.1712,3.1708,3.1708,3.1724,3.1718,3.1722,3.1726,3.1716,3.1711,3.1717,3.1692,3.1701,3.1699,3.1698,3.1695,3.1691,3.1689,3.1726,3.1726,3.1726,0,0,3.1644,3.1651,3.1645,3.1651,3.1661,3.1671,3.1669,3.168,3.1685,3.168,3.1694,3.1692,3.1688,3.1691,3.1692,3.167,3.1678,3.1669,3.1653,3.1649,3.1647,3.1644,3.1638,3.1635,3.1667,3.1667,3.1667,0,3.1621,3.1622,3.1639,3.1637,3.164,3.166,3.1654,3.1658,3.1665,3.1667,3.1674,3.1673,3.1676,3.1669,3.1664,3.1664,3.1663,3.1667,3.1646,3.1644,3.1642,3.1636,3.1633,3.1666,3.1666,3.1666,3.1666,0,3.1595,3.1596,3.1589,3.1601,3.1603,3.1598,3.1614,3.1615,3.1625,3.1634,3.163,3.1636,3.1638,3.1637,3.1644,3.1631,3.1635,3.1644,3.1656,3.1637,3.1632,3.163,3.1664,3.1664,3.1665,3.1665,0,0,3.1542,3.1568,3.1565,3.1572,3.1586,3.1586,3.1584,3.1589,3.159,3.1595,3.1594,3.1593,3.1603,3.1604,3.1613,3.161,3.1594,3.162,3.162,3.1616,3.1583,3.1576,3.1573,3.1601,3.1601,3.1601,3.1583,0,3.1515,3.1514,3.1532,3.1526,3.1528,3.1549,3.1547,3.1556,3.1565,3.1567,3.1576,3.1576,3.1589,3.1591,3.1588,3.1597,3.1588,3.1598,3.1599,3.1599,3.1598,3.157,3.1561,3.1544,3.158,3.158,3.158,0,3.1482,3.1491,3.1487,3.1506,3.1507,3.1505,3.1514,3.1516,3.1526,3.1534,3.1538,3.1551,3.1549,3.1562,3.1561,3.1568,3.157,3.1574,3.1574,3.1574,3.1588,3.1569,3.1539,3.1536,3.1576,3.1577,3.1577,0,3.1446,3.1457,3.1456,3.1462,3.1483,3.1482,3.149,3.1502,3.1506,3.1513,3.1516,3.1521,3.1524,3.1528,3.1542,3.155,3.154,3.1553,3.1545,3.1545,3.1541,3.1541,3.1511,3.1542,3.1542,3.1542,3.1542,0,3.1414,3.1411,3.1441,3.1441,3.1438,3.1459,3.1455,3.1466,3.1477,3.1479,3.1497,3.1497,3.1516,3.1519,3.1529,3.1528,3.1528,3.1534,3.1537,3.1533,3.1532,3.1533,3.1535,3.1541,3.1542,3.1542,3.1542,0,3.1373,3.1393,3.1394,3.1417,3.1423,3.142,3.1439,3.1439,3.1452,3.1454,3.1456,3.1474,3.1479,3.1495,3.1501,3.1509,3.1505,3.1509,3.1502,3.1504,3.1496,3.1497,3.1465,3.1463,3.1495,3.1495,3.1494,0,3.1351,3.135,3.1374,3.1379,3.1388,3.1393,3.1399,3.142,3.1425,3.144,3.1439,3.1447,3.1453,3.146,3.1473,3.148,3.1486,3.1475,3.1486,3.1484,3.1487,3.1487,3.1488,3.1471,3.1471,3.147,3.147,0,3.1311,3.1322,3.1331,3.1344,3.1352,3.1362,3.1373,3.1375,3.14,3.1404,3.1412,3.1418,3.1428,3.1435,3.1445,3.1453,3.1466,3.1467,3.1466,3.1461,3.1457,3.1461,3.1495,3.1467,3.1467,3.1467,3.1468,3.1468,3.1279,3.128,3.1299,3.1309,3.1322,3.1333,3.1336,3.1352,3.1359,3.1372,3.1384,3.139,3.1404,3.142,3.1427,3.1432,3.1439,3.1436,3.1436,3.1435,3.1434,3.1457,3.1434,3.1434,3.1434,3.1434,3.1434,0,3.1241,3.1256,3.1265,3.1283,3.1292,3.1307,3.1322,3.1327,3.1334,3.1348,3.1356,3.1366,3.1375,3.1391,3.1401,3.1402,3.1408,3.1404,3.1404,3.1406,3.1427,3.1427,3.1399,3.1399,3.1399,3.1399,3.1399,3.1399,3.1222,3.1227,3.1241,3.1252,3.1266,3.1276,3.1283,3.1294,3.1306,3.1318,3.1326,3.1338,3.1353,3.1365,3.1374,3.1379,3.1382,3.1376,3.1382,3.1401,3.1404,3.1407,3.1408,3.1376,3.1376,3.1361,3.1361,3.1361]}]]